Weather in Playa Santa Maria

Cuba     21°28′10″N   78°26′34″W
temp.,
°C
wind,
m/s
gust,
m/s
humid.,
%
clouds,
%
prec.,
mm/h
press.,
hPa
HPBL,
m
9 may, sun
sun923:00+25ene4107986 0.1 1018435
02:00+24ene4108499 0.1 1017456
05:00+23ene39860 0.0 1016260
08:00+25e48750 0.0 1018432
11:00+31e56500 0.0 10181686
14:00+35se563324 0.0 10152797
17:00+30w455499 0.1 1015745
20:00+28ene69574 1.4 1016542
10 may, mon
mon1023:00+25ene511760 0.0 1018566
02:00+24ene411810 0.0 1016532
05:00+23ene410860 0.0 1016464
08:00+25e59790 0.0 1018626
11:00+31ese454910 0.0 10171557
14:00+35s34340 0.0 10152317
17:00+32wsw535211 0.0 1014840
20:00+28ene226735 1.0 101680
11 may, tue
tue1123:00+26ene48770 0.1 1017346
02:00+24ene38870 0.1 1016270
05:00+24e39890 0.0 1015331
08:00+26e46800 0.0 1017382
11:00+32e45490 0.0 10171390
14:00+35se443620 0.0 10152463
17:00+29sw226098 0.7 1014219
20:00+28e486689 1.4 1016483
12 may, wed
wed1223:00+25e36850 2.3 1017226
02:00+24e38925 2.7 1016291
05:00+23ene27951 0.0 1015272
08:00+25ene35850 0.0 1017310
11:00+31ese33535 0.0 10171365
14:00+35sw544131 0.0 10152261
17:00+32wsw544943 0.1 1014925
20:00+27w22681 1.2 101532
13 may, thu
thu1323:00+24ene26865 3.6 1017186
02:00+25e25865 3.8 1016143
05:00+24ene23860 0.0 101573
08:00+26e34805 0.0 1017259
11:00+32ene34505 0.0 10161193
14:00+37w123699 0.0 10142742
17:00+29ssw346693 0.3 1013199
20:00+28wnw127188 2.3 101458